Flag Weather past 2 weeks in Düren, North Rhine-Westphalia, Germany

Now
39 °F

Passing clouds.


Feels Like: 34 °F
Forecast: 33 / 47 °F
Wind: 8 mph from Southeast

Location: Noervenich

Current Time: Nov 29, 2014 at 7:28:27 AM

Latest Report: Nov 29, 2014 at 6:20 AM


Visibility: N/A

Pressure: 29.92 "Hg

Humidity: 87%

Dew point: 36 °F

Location of DürenLocation

Historic Weather in Düren — Graph

°F

Düren temperature yesterday

Maximum temperature yesterday: 45 °F (at 11:20 AM)
Minimum temperature yesterday: 41 °F (at 5:20 PM)
Average temperature yesterday: 43 °F

Past Weeks' High & Low Weather Summary

 TemperatureHumidityPressure
High55 °F (Nov 14, 12:20 PM)100% (Nov 15, 2:20 AM)30.33 "Hg (Nov 15, 2:20 AM)
Low28 °F (Nov 25, 4:20 AM)66% (Nov 21, 1:20 PM)29.53 "Hg (Nov 16, 1:20 PM)
Average45 °F88%29.94 "Hg
* Reported Nov 14 6:20 AM — Nov 29 6:20 AM, Düren, Weather by CustomWeather, © 2014

Note: Actual official high and low records may vary slightly from our data, if they occured in-between our weather recording intervals... More about our weather records

Advertising

Düren weather history for previous 24 hours

 ConditionsComfort  
Time TempWeatherWind HumidityBarometerVisibility
6:20 AM
Nov 29
39 °FPassing clouds.8 mph87%29.92 "HgN/A
5:20 AM39 °FLow clouds.9 mph87%29.92 "HgN/A
4:20 AM39 °FLow clouds.7 mph87%29.89 "HgN/A
3:20 AM39 °FOvercast.8 mph87%29.89 "HgN/A
2:20 AM39 °FOvercast.9 mph87%29.89 "HgN/A
1:20 AM39 °FPassing clouds.6 mph87%29.89 "HgN/A
12:20 AM41 °FPassing clouds.9 mph87%29.89 "HgN/A
11:20 PM
Nov 28
41 °FPassing clouds.7 mph87%29.89 "HgN/A
10:20 PM41 °FPassing clouds.8 mph87%29.86 "HgN/A
9:20 PM41 °FPassing clouds.8 mph87%29.86 "HgN/A
8:20 PM41 °FPassing clouds.6 mph87%29.86 "HgN/A
7:20 PM41 °FPassing clouds.7 mph87%29.83 "HgN/A
6:20 PM41 °FPassing clouds.7 mph87%29.83 "HgN/A
5:20 PM41 °FPassing clouds.5 mph87%29.83 "HgN/A
4:20 PM43 °FPartly sunny.8 mph81%29.80 "HgN/A
3:20 PM45 °FScattered clouds.7 mph81%29.80 "HgN/A
2:20 PM45 °FPartly sunny.8 mph81%29.77 "HgN/A
1:20 PM45 °FPartly sunny.8 mph81%29.77 "Hg6 mi
12:20 PM45 °FPartly sunny.12 mph81%29.77 "Hg6 mi
11:20 AM45 °FPartly sunny.8 mph81%29.80 "Hg5 mi
10:20 AM43 °FPartly sunny.10 mph81%29.80 "Hg5 mi
9:20 AM43 °FPartly sunny.8 mph81%29.77 "Hg6 mi
8:20 AM43 °FPartly sunny.6 mph81%29.77 "Hg6 mi
7:20 AM43 °FPassing clouds.8 mph87%29.74 "Hg6 mi
Weather by CustomWeather, © 2014

See weather overviewHow to use our weather pages